Time,TemperatureF,DewpointF,PressureIn,WindDirection,WindDirectionDegrees,WindSpeedMPH,WindSpeedGustMPH,Humidity,HourlyPrecipIn,Conditions,Clouds,dailyrainin,SoftwareType,DateUTC
2013-01-12 00:03:00,32.0,31.0,30.15,SE,136,0.0,0.0,96,0.00,,,0.00,,2013-01-12 05:03:00,
2013-01-12 00:12:00,32.0,31.0,30.15,SE,136,0.0,0.0,96,0.00,,,0.00,,2013-01-12 05:12:00,
2013-01-12 00:22:00,32.0,31.0,30.15,SE,136,0.0,0.0,96,0.00,,,0.00,,2013-01-12 05:22:00,
2013-01-12 00:32:00,32.0,31.0,30.13,SE,146,0.0,0.0,96,0.00,,,0.00,,2013-01-12 05:32:00,
2013-01-12 00:42:00,32.0,31.0,30.13,SE,146,0.0,0.0,96,0.00,,,0.00,,2013-01-12 05:42:00,
2013-01-12 00:53:00,32.0,31.0,30.16,West,269,0.0,0.0,96,0.00,,,0.00,,2013-01-12 05:53:00,
2013-01-12 01:03:00,32.0,31.0,30.16,ESE,114,0.0,0.0,96,0.00,,,0.00,,2013-01-12 06:03:00,
2013-01-12 01:12:00,32.0,31.0,30.16,ESE,114,0.0,0.0,96,0.00,,,0.00,,2013-01-12 06:12:00,
2013-01-12 01:22:00,32.0,31.0,30.16,SE,126,0.0,0.0,96,0.00,,,0.00,,2013-01-12 06:22:00,
2013-01-12 01:33:00,32.0,31.0,30.16,SE,126,0.0,1.0,96,0.00,,,0.00,,2013-01-12 06:33:00,
2013-01-12 01:43:00,32.0,31.0,30.16,SE,126,0.0,1.0,96,0.00,,,0.00,,2013-01-12 06:43:00,
2013-01-12 01:52:00,32.0,31.0,30.15,SE,126,0.0,0.0,96,0.00,,,0.00,,2013-01-12 06:52:00,
2013-01-12 02:02:00,32.0,31.0,30.15,SE,125,0.0,0.0,96,0.00,,,0.00,,2013-01-12 07:02:00,
2013-01-12 02:12:00,32.0,31.0,30.15,SE,125,0.0,0.0,96,0.00,,,0.00,,2013-01-12 07:12:00,
2013-01-12 02:22:00,32.0,31.0,30.16,SE,125,0.0,0.0,96,0.00,,,0.00,,2013-01-12 07:22:00,
2013-01-12 02:32:00,32.0,31.0,30.18,SE,125,0.0,0.0,96,0.00,,,0.00,,2013-01-12 07:32:00,
2013-01-12 02:42:00,32.0,31.0,30.18,SE,125,0.0,0.0,96,0.00,,,0.00,,2013-01-12 07:42:00,
2013-01-12 02:52:00,32.0,31.0,30.15,ESE,122,0.0,0.0,96,0.00,,,0.00,,2013-01-12 07:52:00,
2013-01-12 03:02:00,32.0,31.0,30.16,SE,125,0.0,0.0,96,0.00,,,0.00,,2013-01-12 08:02:00,
2013-01-12 03:12:00,32.0,31.0,30.16,SE,125,0.0,0.0,96,0.00,,,0.00,,2013-01-12 08:12:00,
2013-01-12 03:22:00,32.0,31.0,30.16,SE,125,0.0,0.0,96,0.00,,,0.00,,2013-01-12 08:22:00,
2013-01-12 03:32:00,32.0,31.0,30.16,SE,125,0.0,0.0,96,0.00,,,0.00,,2013-01-12 08:32:00,
2013-01-12 03:42:00,32.0,31.0,30.16,SE,125,0.0,0.0,96,0.00,,,0.00,,2013-01-12 08:42:00,
2013-01-12 03:52:00,32.0,31.0,30.16,SE,125,0.0,0.0,96,0.00,,,0.00,,2013-01-12 08:52:00,
2013-01-12 04:02:00,32.0,31.0,30.16,SE,125,0.0,0.0,96,0.00,,,0.00,,2013-01-12 09:02:00,
2013-01-12 04:12:00,32.0,31.0,30.16,SE,125,0.0,0.0,96,0.00,,,0.00,,2013-01-12 09:12:00,
2013-01-12 04:22:00,32.0,31.0,30.15,SE,126,0.0,0.0,96,0.00,,,0.00,,2013-01-12 09:22:00,
2013-01-12 04:32:00,32.0,31.0,30.15,SE,126,0.0,0.0,96,0.00,,,0.00,,2013-01-12 09:32:00,
2013-01-12 04:42:00,32.0,31.0,30.15,SE,126,0.0,0.0,96,0.00,,,0.00,,2013-01-12 09:42:00,
2013-01-12 04:53:00,32.0,31.0,30.16,SE,126,0.0,0.0,96,0.00,,,0.00,,2013-01-12 09:53:00,
2013-01-12 05:02:00,32.0,31.0,30.16,SE,125,0.0,0.0,96,0.00,,,0.00,,2013-01-12 10:02:00,
2013-01-12 05:12:00,32.0,31.0,30.16,SE,125,0.0,0.0,96,0.00,,,0.00,,2013-01-12 10:12:00,
2013-01-12 05:22:00,32.0,31.0,30.16,SE,125,0.0,0.0,96,0.00,,,0.00,,2013-01-12 10:22:00,
2013-01-12 05:32:00,32.0,31.0,30.16,SE,126,0.0,0.0,96,0.00,,,0.00,,2013-01-12 10:32:00,
2013-01-12 05:43:00,32.0,31.0,30.16,SE,126,0.0,0.0,96,0.00,,,0.00,,2013-01-12 10:43:00,
2013-01-12 05:52:00,32.0,31.0,30.16,SSW,208,0.0,0.0,96,0.00,,,0.00,,2013-01-12 10:52:00,
2013-01-12 06:02:00,32.0,31.0,30.16,SSW,208,0.0,0.0,96,0.00,,,0.00,,2013-01-12 11:02:00,
2013-01-12 06:12:00,32.0,31.0,30.16,SSW,208,0.0,0.0,96,0.00,,,0.00,,2013-01-12 11:12:00,
2013-01-12 06:22:00,32.0,31.0,30.16,SSW,208,0.0,0.0,96,0.00,,,0.00,,2013-01-12 11:22:00,
2013-01-12 06:33:00,32.0,31.0,30.16,SSW,208,0.0,0.0,96,0.00,,,0.00,,2013-01-12 11:33:00,
2013-01-12 06:42:00,32.0,31.0,30.16,SSW,208,0.0,0.0,96,0.00,,,0.00,,2013-01-12 11:42:00,
2013-01-12 06:53:00,32.0,31.0,30.15,WNW,284,0.0,1.0,96,0.00,,,0.00,,2013-01-12 11:53:00,
2013-01-12 07:03:00,32.0,31.0,30.16,West,279,0.0,1.0,96,0.00,,,0.00,,2013-01-12 12:03:00,
2013-01-12 07:12:00,32.0,31.0,30.16,West,279,0.0,1.0,96,0.00,,,0.00,,2013-01-12 12:12:00,
2013-01-12 07:22:00,32.0,31.0,30.17,West,279,0.0,0.0,96,0.00,,,0.00,,2013-01-12 12:22:00,
2013-01-12 07:33:00,32.0,31.0,30.17,West,280,0.0,0.0,96,0.00,,,0.00,,2013-01-12 12:33:00,
2013-01-12 07:43:00,32.0,31.0,30.17,West,280,0.0,0.0,96,0.00,,,0.00,,2013-01-12 12:43:00,
2013-01-12 07:52:00,32.0,31.0,30.19,West,276,0.0,1.0,96,0.00,,,0.00,,2013-01-12 12:52:00,
2013-01-12 08:02:00,32.0,31.0,30.18,SE,126,0.0,1.0,96,0.00,,,0.00,,2013-01-12 13:02:00,
2013-01-12 08:12:00,32.0,31.0,30.18,SE,126,0.0,1.0,96,0.00,,,0.00,,2013-01-12 13:12:00,
2013-01-12 08:23:00,32.0,31.0,30.18,South,173,0.0,1.0,96,0.00,,,0.00,,2013-01-12 13:23:00,
2013-01-12 08:33:00,32.0,31.0,30.19,South,173,0.0,0.0,96,0.00,,,0.00,,2013-01-12 13:33:00,
2013-01-12 08:43:00,32.0,31.0,30.19,South,173,0.0,0.0,96,0.00,,,0.00,,2013-01-12 13:43:00,
2013-01-12 08:53:00,32.0,31.0,30.18,South,174,0.0,0.0,96,0.00,,,0.00,,2013-01-12 13:53:00,
2013-01-12 09:02:00,33.0,32.0,30.18,SW,219,0.0,0.0,96,0.00,,,0.00,,2013-01-12 14:02:00,
2013-01-12 09:12:00,33.0,32.0,30.18,SW,219,0.0,0.0,96,0.00,,,0.00,,2013-01-12 14:12:00,
2013-01-12 09:22:00,33.0,32.0,30.18,SW,219,0.0,0.0,96,0.01,,,0.01,,2013-01-12 14:22:00,
2013-01-12 09:33:00,33.0,32.0,30.19,SW,219,0.0,0.0,96,0.01,,,0.01,,2013-01-12 14:33:00,
2013-01-12 09:43:00,33.0,32.0,30.19,SW,219,0.0,0.0,96,0.01,,,0.01,,2013-01-12 14:43:00,
2013-01-12 09:53:00,34.0,33.0,30.17,SE,129,0.0,3.0,96,0.01,,,0.01,,2013-01-12 14:53:00,
2013-01-12 10:03:00,34.0,33.0,30.16,SE,146,0.0,0.0,96,0.01,,,0.01,,2013-01-12 15:03:00,
2013-01-12 10:13:00,34.0,33.0,30.16,SE,146,0.0,0.0,96,0.01,,,0.01,,2013-01-12 15:13:00,
2013-01-12 10:23:00,35.0,34.0,30.17,SSE,149,0.0,2.0,96,0.00,,,0.01,,2013-01-12 15:23:00,
2013-01-12 10:33:00,35.0,34.0,30.17,ESE,121,0.0,2.0,96,0.00,,,0.01,,2013-01-12 15:33:00,
2013-01-12 10:43:00,35.0,34.0,30.17,ESE,121,0.0,2.0,96,0.00,,,0.01,,2013-01-12 15:43:00,
2013-01-12 10:53:00,35.0,34.0,30.17,SE,132,0.0,1.0,96,0.00,,,0.01,,2013-01-12 15:53:00,
2013-01-12 11:03:00,35.0,34.0,30.16,SE,131,0.0,1.0,96,0.00,,,0.01,,2013-01-12 16:03:00,
2013-01-12 11:12:00,35.0,34.0,30.16,SE,131,0.0,1.0,96,0.00,,,0.01,,2013-01-12 16:12:00,
2013-01-12 11:23:00,36.0,35.0,30.15,SE,131,0.0,0.0,96,0.00,,,0.01,,2013-01-12 16:23:00,
2013-01-12 11:33:00,37.0,36.0,30.15,WSW,256,0.0,1.0,96,0.00,,,0.01,,2013-01-12 16:33:00,
2013-01-12 11:43:00,37.0,36.0,30.15,WSW,256,0.0,1.0,96,0.00,,,0.01,,2013-01-12 16:43:00,
2013-01-12 11:53:00,38.0,37.0,30.16,WNW,285,0.0,2.0,95,0.00,,,0.01,,2013-01-12 16:53:00,
2013-01-12 12:02:00,39.0,38.0,30.14,ENE,73,0.0,1.0,95,0.00,,,0.01,,2013-01-12 17:02:00,
2013-01-12 12:12:00,39.0,38.0,30.14,ENE,73,0.0,1.0,95,0.00,,,0.01,,2013-01-12 17:12:00,
2013-01-12 12:23:00,40.0,39.0,30.13,NE,51,0.0,0.0,95,0.00,,,0.01,,2013-01-12 17:23:00,
2013-01-12 12:33:00,41.0,40.0,30.13,NE,51,0.0,1.0,95,0.00,,,0.01,,2013-01-12 17:33:00,
2013-01-12 12:43:00,41.0,40.0,30.13,NE,51,0.0,1.0,95,0.00,,,0.01,,2013-01-12 17:43:00,
2013-01-12 12:53:00,42.0,40.0,30.13,ESE,123,0.0,2.0,93,0.00,,,0.01,,2013-01-12 17:53:00,
2013-01-12 13:03:00,43.0,41.0,30.12,SE,127,0.0,2.0,92,0.00,,,0.01,,2013-01-12 18:03:00,
2013-01-12 13:12:00,43.0,41.0,30.12,SE,127,0.0,2.0,92,0.00,,,0.01,,2013-01-12 18:12:00,
2013-01-12 13:23:00,43.0,41.0,30.12,ESE,104,1.0,3.0,91,0.00,,,0.01,,2013-01-12 18:23:00,
2013-01-12 13:33:00,43.0,40.0,30.13,ESE,114,3.0,5.0,88,0.00,,,0.01,,2013-01-12 18:33:00,
2013-01-12 13:43:00,43.0,40.0,30.13,ESE,114,3.0,5.0,88,0.00,,,0.01,,2013-01-12 18:43:00,
2013-01-12 13:52:00,40.0,38.0,30.14,ESE,122,1.0,4.0,91,0.00,,,0.01,,2013-01-12 18:52:00,
2013-01-12 14:03:00,39.0,37.0,30.13,ESE,120,1.0,2.0,92,0.00,,,0.01,,2013-01-12 19:03:00,
2013-01-12 14:12:00,39.0,37.0,30.13,ESE,120,1.0,2.0,92,0.00,,,0.01,,2013-01-12 19:12:00,
2013-01-12 14:23:00,38.0,36.0,30.13,West,273,0.0,1.0,93,0.00,,,0.01,,2013-01-12 19:23:00,
2013-01-12 14:33:00,38.0,36.0,30.13,SE,130,0.0,1.0,93,0.00,,,0.01,,2013-01-12 19:33:00,
2013-01-12 14:43:00,38.0,36.0,30.13,SE,130,0.0,1.0,93,0.00,,,0.01,,2013-01-12 19:43:00,
2013-01-12 14:52:00,37.0,35.0,30.14,SE,142,1.0,3.0,93,0.00,,,0.01,,2013-01-12 19:52:00,
2013-01-12 15:03:00,37.0,36.0,30.14,SE,133,0.0,2.0,95,0.00,,,0.01,,2013-01-12 20:03:00,
2013-01-12 15:13:00,37.0,36.0,30.14,SE,133,0.0,2.0,95,0.00,,,0.01,,2013-01-12 20:13:00,
2013-01-12 15:22:00,37.0,36.0,30.13,SE,125,0.0,3.0,95,0.00,,,0.01,,2013-01-12 20:22:00,
2013-01-12 15:33:00,37.0,36.0,30.14,SE,142,0.0,2.0,95,0.00,,,0.01,,2013-01-12 20:33:00,
2013-01-12 15:42:00,37.0,36.0,30.14,SE,142,0.0,2.0,95,0.00,,,0.01,,2013-01-12 20:42:00,
2013-01-12 15:53:00,36.0,35.0,30.14,SE,129,0.0,3.0,95,0.00,,,0.01,,2013-01-12 20:53:00,
2013-01-12 16:03:00,36.0,35.0,30.15,SE,136,0.0,2.0,95,0.00,,,0.01,,2013-01-12 21:03:00,
2013-01-12 16:12:00,36.0,35.0,30.15,SE,136,0.0,2.0,95,0.00,,,0.01,,2013-01-12 21:12:00,
2013-01-12 16:22:00,36.0,35.0,30.15,SE,126,0.0,1.0,95,0.00,,,0.01,,2013-01-12 21:22:00,
2013-01-12 16:33:00,35.0,34.0,30.16,SSW,193,0.0,0.0,96,0.00,,,0.01,,2013-01-12 21:33:00,
2013-01-12 16:43:00,35.0,34.0,30.16,SSW,193,0.0,0.0,96,0.00,,,0.01,,2013-01-12 21:43:00,
2013-01-12 16:52:00,35.0,34.0,30.15,WNW,302,1.0,2.0,96,0.00,,,0.01,,2013-01-12 21:52:00,
2013-01-12 17:03:00,35.0,34.0,30.14,West,276,1.0,3.0,96,0.00,,,0.01,,2013-01-12 22:03:00,
2013-01-12 17:12:00,35.0,34.0,30.14,West,276,1.0,3.0,96,0.00,,,0.01,,2013-01-12 22:12:00,
2013-01-12 17:23:00,35.0,34.0,30.14,West,279,0.0,1.0,96,0.00,,,0.01,,2013-01-12 22:23:00,
2013-01-12 17:33:00,35.0,34.0,30.14,West,280,0.0,1.0,96,0.00,,,0.01,,2013-01-12 22:33:00,
2013-01-12 17:43:00,35.0,34.0,30.14,West,280,0.0,1.0,96,0.00,,,0.01,,2013-01-12 22:43:00,
2013-01-12 17:52:00,35.0,34.0,30.14,West,280,0.0,0.0,96,0.00,,,0.01,,2013-01-12 22:52:00,
2013-01-12 18:03:00,35.0,34.0,30.14,SE,136,0.0,0.0,96,0.00,,,0.01,,2013-01-12 23:03:00,
2013-01-12 18:13:00,35.0,34.0,30.14,SE,136,0.0,0.0,96,0.00,,,0.01,,2013-01-12 23:13:00,
2013-01-12 18:23:00,35.0,34.0,30.14,SE,136,0.0,0.0,96,0.00,,,0.01,,2013-01-12 23:23:00,
2013-01-12 18:33:00,35.0,34.0,30.14,South,174,0.0,0.0,96,0.00,,,0.01,,2013-01-12 23:33:00,
2013-01-12 18:43:00,35.0,34.0,30.14,South,174,0.0,0.0,96,0.00,,,0.01,,2013-01-12 23:43:00,
2013-01-12 18:53:00,35.0,34.0,30.14,South,184,0.0,0.0,96,0.00,,,0.01,,2013-01-12 23:53:00,
2013-01-12 19:03:00,35.0,34.0,30.14,ESE,110,0.0,0.0,96,0.00,,,0.01,,2013-01-13 00:03:00,
2013-01-12 19:12:00,35.0,34.0,30.14,ESE,110,0.0,0.0,96,0.00,,,0.01,,2013-01-13 00:12:00,
2013-01-12 19:23:00,35.0,34.0,30.15,ESE,110,0.0,0.0,96,0.00,,,0.01,,2013-01-13 00:23:00,
2013-01-12 19:33:00,35.0,34.0,30.15,ESE,110,0.0,0.0,96,0.00,,,0.01,,2013-01-13 00:33:00,
2013-01-12 19:43:00,35.0,34.0,30.15,ESE,110,0.0,0.0,96,0.00,,,0.01,,2013-01-13 00:43:00,
2013-01-12 19:52:00,35.0,34.0,30.15,ESE,110,0.0,0.0,96,0.00,,,0.01,,2013-01-13 00:52:00,
2013-01-12 20:03:00,35.0,34.0,30.15,ESE,110,0.0,0.0,96,0.00,,,0.01,,2013-01-13 01:03:00,
2013-01-12 20:12:00,35.0,34.0,30.15,ESE,110,0.0,0.0,96,0.00,,,0.01,,2013-01-13 01:12:00,
2013-01-12 20:23:00,35.0,34.0,30.14,ESE,110,0.0,0.0,96,0.00,,,0.01,,2013-01-13 01:23:00,
2013-01-12 20:33:00,34.0,33.0,30.15,ESE,110,0.0,0.0,96,0.00,,,0.01,,2013-01-13 01:33:00,
2013-01-12 20:43:00,34.0,33.0,30.15,ESE,110,0.0,0.0,96,0.00,,,0.01,,2013-01-13 01:43:00,
2013-01-12 20:52:00,34.0,33.0,30.14,ESE,110,0.0,0.0,96,0.00,,,0.01,,2013-01-13 01:52:00,
2013-01-12 21:02:00,34.0,33.0,30.14,ESE,110,0.0,0.0,96,0.00,,,0.01,,2013-01-13 02:02:00,
2013-01-12 21:13:00,34.0,33.0,30.14,ESE,110,0.0,0.0,96,0.00,,,0.01,,2013-01-13 02:13:00,
2013-01-12 21:23:00,34.0,33.0,30.14,ESE,110,0.0,0.0,96,0.00,,,0.01,,2013-01-13 02:23:00,
2013-01-12 21:33:00,34.0,33.0,30.14,ESE,110,0.0,0.0,96,0.00,,,0.01,,2013-01-13 02:33:00,
2013-01-12 21:43:00,34.0,33.0,30.14,ESE,110,0.0,0.0,96,0.00,,,0.01,,2013-01-13 02:43:00,
2013-01-12 21:52:00,34.0,33.0,30.14,ESE,111,0.0,0.0,96,0.00,,,0.01,,2013-01-13 02:52:00,
2013-01-12 22:03:00,34.0,33.0,30.14,ESE,111,0.0,0.0,96,0.00,,,0.01,,2013-01-13 03:03:00,
2013-01-12 22:12:00,34.0,33.0,30.14,ESE,111,0.0,0.0,96,0.00,,,0.01,,2013-01-13 03:12:00,
2013-01-12 22:22:00,34.0,33.0,30.15,ESE,111,0.0,0.0,96,0.00,,,0.01,,2013-01-13 03:22:00,
2013-01-12 22:33:00,34.0,33.0,30.15,ESE,111,0.0,0.0,96,0.00,,,0.01,,2013-01-13 03:33:00,
2013-01-12 22:43:00,34.0,33.0,30.15,ESE,111,0.0,0.0,96,0.00,,,0.01,,2013-01-13 03:43:00,
2013-01-12 22:52:00,34.0,33.0,30.15,ESE,111,0.0,0.0,96,0.00,,,0.01,,2013-01-13 03:52:00,
2013-01-12 23:03:00,34.0,33.0,30.15,ESE,110,0.0,0.0,96,0.00,,,0.01,,2013-01-13 04:03:00,
2013-01-12 23:12:00,34.0,33.0,30.15,ESE,110,0.0,0.0,96,0.00,,,0.01,,2013-01-13 04:12:00,
2013-01-12 23:22:00,34.0,33.0,30.15,ESE,111,0.0,0.0,96,0.00,,,0.01,,2013-01-13 04:22:00,
2013-01-12 23:33:00,34.0,33.0,30.15,ESE,112,0.0,0.0,96,0.00,,,0.01,,2013-01-13 04:33:00,
2013-01-12 23:43:00,34.0,33.0,30.15,ESE,112,0.0,0.0,96,0.00,,,0.01,,2013-01-13 04:43:00,
2013-01-12 23:52:00,34.0,33.0,30.15,ESE,110,0.0,0.0,96,0.00,,,0.01,,2013-01-13 04:52:00,